User: anonymous
Location: Caltech
(34.1382°N, 118.1253°W)
Time: 11:41:24
(UTC-07:00)
Language:

NOSS 3-4 (C) - Orbit

View from above orbital plane
View from above orbital plane
View from above satellite
View from above satellite

Ground track
Ground track

The orbit data is extracted from the following two-line orbital elements,

1 31708U 07027C   14095.74082172 0.00000000  00000-0  00000-0 0    08
2 31708  63.4040 181.0531 0103000  41.0000 319.0000 13.40636957    03
Epoch (UTC): 05 April 2014 17:46:46
Eccentricity: 0.0103000
inclination: 63.4040°
perigee height: 1030 km
apogee height: 1184 km
right ascension of ascending node: 181.0531°
argument of perigee: 41.0000°
revolutions per day: 13.40636957
mean anomaly at epoch: 319.0000°
orbit number at epoch: 0

The dashed part of the orbit path shows where the satellite is in the earth's shadow,  

DLR